Theta_e
333 336 345 347 352 353 356 355 352 340 340 338 337 339 342 346 347 344 337 330 333 338 341 339 341 339 334 333 332 333 337 336 335 336 338 338 340 339 340 336 339 340 332 331 341 340 338 333 339
335 343 346 347 353 358 356 353 349 339 339 339 342 343 347 349 345 340 339 333 336 338 340 339 338 332 332 332 339 338 331 338 338 336 336 339 341 340 341 338 335 337 322 324 326 333 339 338 338
344 348 349 354 351 356 357 352 349 343 340 343 348 347 347 346 343 342 338 335 337 338 339 339 335 332 328 327 327 330 332 335 338 337 338 340 342 340 339 337 338 338 335 337 340 341 338 337 339
347 346 346 355 353 352 351 347 345 341 341 347 347 347 344 344 342 340 337 337 337 338 339 337 338 331 340 335 329 329 328 328 333 335 338 341 341 340 338 337 338 340 340 340 340 340 337 335 334
347 348 353 355 353 351 349 348 343 344 344 347 347 345 343 344 341 342 340 338 338 338 338 337 339 334 340 339 332 340 334 330 332 336 336 339 340 339 341 335 338 340 340 340 338 338 338 334 332
349 348 354 355 354 352 351 349 347 345 347 345 344 343 345 345 340 342 342 340 338 337 334 342 338 333 338 337 332 336 340 336 339 335 334 340 340 339 339 332 335 337 338 341 339 339 339 335 330
351 351 353 353 355 353 352 349 346 347 346 345 342 344 345 345 343 340 342 341 338 335 332 342 341 339 340 337 339 338 338 335 335 337 338 341 341 340 340 331 333 335 338 341 339 340 340 339 334
349 350 353 354 356 357 349 350 348 346 346 344 342 345 346 345 341 339 341 341 337 332 333 335 343 333 338 336 337 340 339 339 339 336 339 341 342 340 339 339 332 336 340 340 340 340 339 339 336
347 351 353 354 354 354 347 349 347 344 343 344 344 343 343 342 341 341 336 339 339 340 337 341 338 335 338 339 339 340 336 337 337 338 337 340 341 340 341 341 333 336 340 340 342 342 341 340 339
348 352 351 347 349 350 346 347 344 344 346 345 344 344 342 342 343 340 337 342 342 343 337 339 334 336 337 337 339 339 338 336 336 335 336 339 339 340 339 340 332 336 339 340 342 342 343 342 341
346 350 348 350 347 347 346 346 347 345 347 344 344 344 344 343 342 337 340 340 342 340 338 338 335 334 336 338 335 338 333 333 333 335 335 338 339 339 334 331 330 335 339 341 342 341 340 341 340
349 346 347 350 348 345 348 345 347 347 346 343 343 342 343 342 339 337 340 338 336 338 336 337 335 333 336 336 337 335 331 329 333 333 336 338 336 334 332 333 336 339 341 342 340 339 339 341 339
346 346 348 350 347 349 347 346 346 345 344 343 343 343 342 340 339 336 338 339 336 336 336 334 337 335 335 336 341 337 334 330 333 337 337 335 333 333 336 338 339 341 343 340 340 339 338 340 339
339 347 350 349 347 348 346 346 346 346 343 343 342 341 341 340 340 334 334 335 335 337 335 338 339 334 336 339 343 340 336 331 335 336 335 337 340 341 340 341 342 342 342 340 340 339 338 338 336
342 350 349 350 349 349 346 349 348 346 343 343 341 341 342 342 342 338 335 336 339 338 340 339 337 334 340 343 341 339 337 335 334 335 337 341 341 341 340 339 341 342 342 341 341 337 335 335 334
343 347 353 351 350 347 347 354 348 346 344 343 342 343 344 345 344 341 338 340 338 341 342 342 339 338 340 341 341 342 341 340 337 337 338 340 340 337 339 339 341 341 341 343 342 340 341 341 342
333 343 350 354 349 349 348 352 348 347 344 345 345 345 345 345 346 344 341 342 341 340 343 343 343 341 341 341 341 342 341 341 340 337 337 338 340 339 340 342 340 341 340 342 343 342 342 342 342
330 334 350 355 352 350 350 349 345 347 344 345 346 345 345 345 346 346 345 342 344 343 343 344 343 344 343 343 342 341 342 342 342 342 340 338 340 339 341 342 341 341 341 342 343 342 341 341 342
328 340 353 352 349 351 349 346 347 347 346 346 346 346 346 346 346 346 346 343 344 345 344 343 344 345 345 344 343 343 342 342 342 342 343 343 340 341 341 342 341 341 341 342 343 343 341 341 340
350 351 354 351 346 347 347 350 348 347 347 346 346 346 346 347 347 346 346 345 344 345 345 343 343 345 345 344 344 344 344 344 344 343 342 342 343 342 340 341 342 341 343 342 343 342 342 342 341
333 342 352 351 348 346 350 352 352 348 347 347 345 344 345 346 347 347 347 346 344 346 345 343 343 342 344 345 345 343 345 343 342 342 343 341 341 341 340 342 340 340 343 342 342 343 342 342 342
328 330 348 348 346 352 345 352 348 350 349 347 346 345 342 345 347 347 347 346 343 345 345 343 342 340 342 345 343 343 343 343 344 344 343 343 342 341 341 344 343 340 340 343 342 343 343 342 343
327 327 347 345 348 347 347 349 346 349 352 349 347 346 343 343 346 346 347 346 344 345 345 343 343 342 342 341 344 344 343 343 345 345 344 341 341 341 343 342 342 343 341 342 341 341 344 343 343
331 344 345 345 348 340 343 348 350 352 350 349 346 346 345 343 344 346 343 348 345 344 346 344 343 343 343 340 343 345 343 344 345 345 344 342 343 342 343 343 342 341 343 342 340 341 343 343 343
332 336 343 346 348 338 342 350 343 348 347 347 347 346 345 345 344 346 347 348 345 344 346 345 344 343 344 343 341 344 344 344 344 344 346 345 343 343 341 341 341 342 344 343 344 341 342 343 343
338 333 334 337 339 340 346 350 347 346 344 346 346 345 345 345 344 346 346 348 346 344 346 345 344 344 344 345 343 344 344 345 345 344 344 346 345 342 342 342 343 344 343 343 344 340 342 342 342
324 327 331 337 335 342 348 346 344 347 345 346 346 345 344 344 345 345 347 347 345 344 346 346 345 345 344 345 343 344 341 344 344 345 344 346 346 345 345 344 343 343 343 342 341 343 341 341 342
325 326 327 329 343 341 348 349 350 351 350 346 347 345 345 344 345 345 347 345 345 346 345 344 345 345 346 346 344 343 342 342 342 344 345 346 344 345 346 345 344 343 342 341 342 342 344 341 342
325 326 327 329 332 338 346 349 346 349 349 349 347 347 346 344 345 344 344 345 345 344 343 344 345 345 345 346 346 345 344 343 341 344 344 344 345 345 346 343 344 346 344 343 342 341 342 342 342
326 327 330 329 338 342 346 349 346 348 347 348 347 348 346 345 345 344 344 345 343 343 342 342 343 344 343 344 346 345 343 343 341 342 343 344 345 344 345 344 345 346 347 348 346 343 342 342 341
Wind_Speed
6 7 3 2 1 0 2 3 2 12 11 11 20 5 7 7 1 4 22 23 23 22 20 17 15 14 13 13 12 12 11 11 11 11 12 11 13 13 15 15 15 15 15 18 19 19 17 16 17
7 5 3 2 2 1 2 0 10 11 17 21 9 14 5 5 4 18 24 26 22 22 19 16 13 12 12 11 11 10 10 10 10 11 11 11 12 13 15 15 15 17 17 18 18 20 18 17 15
7 3 2 2 2 1 3 2 8 13 22 16 6 8 5 4 11 21 25 27 23 22 19 15 13 10 9 9 8 8 8 8 8 9 9 11 11 12 14 14 15 16 17 18 16 15 16 16 15
3 2 3 1 4 1 5 8 18 23 18 4 14 9 8 7 17 18 29 26 23 21 17 14 12 10 9 8 8 8 8 8 8 8 9 10 11 13 12 13 14 14 15 15 14 14 14 14 14
3 2 2 1 4 1 1 9 15 15 14 10 4 6 12 9 11 26 27 25 22 20 16 13 11 9 8 8 8 8 8 10 9 9 9 9 11 13 12 13 14 15 14 15 17 16 15 15 14
3 3 1 1 2 1 3 7 1 8 10 11 13 16 8 10 24 23 22 24 20 18 15 12 10 9 9 7 8 8 8 10 9 10 10 9 11 11 11 13 14 15 14 15 16 15 16 17 15
1 2 3 4 2 4 1 7 3 9 12 7 18 9 11 16 20 23 20 21 20 17 15 12 10 10 9 8 8 8 8 9 10 10 11 9 11 11 13 13 15 15 13 15 15 15 16 17 17
0 0 2 3 12 5 4 4 4 10 6 15 18 7 12 25 24 23 20 19 19 17 14 13 11 10 9 10 8 9 9 9 10 11 11 11 12 11 13 13 14 15 14 15 12 13 14 16 17
1 0 2 5 12 7 5 1 3 9 17 5 5 19 23 27 27 24 23 18 17 15 13 12 11 11 10 10 9 10 10 10 10 11 12 11 12 12 13 12 13 14 14 14 15 16 16 15 16
2 1 1 4 6 13 10 3 9 8 12 12 23 25 29 25 26 25 22 19 16 16 14 13 12 11 10 10 10 10 10 10 11 12 12 13 13 12 13 11 12 12 12 12 12 11 12 12 12
3 2 3 0 15 24 14 6 2 10 4 18 34 34 29 26 23 21 19 18 17 16 15 14 12 11 10 11 11 9 9 10 12 12 14 13 12 11 11 12 12 13 12 10 10 9 10 9 12
4 4 3 8 16 17 10 7 10 5 3 20 33 36 29 27 24 21 18 18 18 16 15 14 13 12 11 13 13 12 12 12 13 14 15 13 11 13 14 15 15 13 10 8 9 10 13 9 11
4 7 5 9 20 13 9 7 4 10 17 26 28 29 27 23 21 21 17 16 17 16 15 14 13 14 13 14 12 12 12 13 15 15 14 14 14 15 14 14 13 10 8 7 8 8 11 12 12
5 10 9 16 20 15 12 4 4 6 21 26 27 25 24 22 21 22 19 18 18 17 16 14 13 15 16 13 12 12 11 13 14 15 15 16 16 14 12 11 10 9 8 7 5 4 6 8 7
8 9 7 13 18 9 19 5 3 11 23 24 23 22 21 20 18 19 19 18 19 19 17 16 16 16 16 15 14 14 13 13 13 14 17 16 12 9 10 9 8 7 7 7 7 7 6 7 7
6 6 5 9 16 16 10 11 5 15 23 23 23 21 20 20 18 18 20 18 19 20 19 17 17 17 16 15 14 12 12 11 12 15 16 13 10 11 9 10 8 7 8 7 8 9 9 10 10
3 4 7 11 10 13 1 8 9 17 24 24 23 22 20 17 16 16 20 19 18 19 19 18 18 17 15 14 14 12 11 11 12 12 13 11 8 9 9 8 8 6 6 5 6 7 8 8 9
6 5 7 9 10 11 12 6 10 17 24 24 24 22 20 20 21 20 19 20 18 17 17 18 17 16 15 14 12 11 10 10 10 10 10 9 8 9 8 8 7 5 8 5 6 5 6 7 7
3 7 10 9 4 10 5 4 10 18 21 25 23 23 23 23 21 19 19 20 20 18 17 18 19 17 15 15 13 11 12 10 8 9 11 9 9 9 7 7 6 7 6 5 6 6 5 6 4
6 12 7 6 6 4 7 4 9 17 19 21 24 24 25 20 19 21 23 22 22 20 17 17 18 18 16 14 12 10 10 10 9 8 9 11 10 10 10 7 7 7 6 5 5 5 6 7 7
3 5 9 7 8 6 10 5 7 12 17 11 17 23 23 23 22 23 24 25 24 23 20 18 18 16 17 13 14 10 9 9 9 9 10 11 11 10 12 8 7 7 4 5 3 4 5 5 7
7 5 9 14 8 5 5 2 2 11 17 17 17 18 25 25 25 24 26 26 26 23 20 18 19 17 15 15 13 11 8 8 7 8 7 9 11 12 12 9 7 8 6 6 4 2 3 4 5
2 8 11 8 4 5 4 4 5 12 13 20 24 25 23 27 26 25 27 29 27 23 22 19 20 19 15 16 12 8 8 7 5 9 7 8 10 12 11 11 10 9 8 7 5 5 1 2 3
10 15 11 3 2 4 7 5 7 12 16 19 29 27 27 28 28 27 27 24 27 25 24 21 21 21 16 15 15 10 8 7 6 7 6 8 9 10 12 11 10 12 9 7 6 7 6 2 2
10 15 4 3 4 3 1 8 5 14 11 24 27 32 29 27 27 25 23 26 31 29 27 24 23 23 18 15 16 12 9 4 7 6 4 6 9 9 11 11 10 10 9 9 8 8 9 6 3
15 12 6 6 6 5 4 7 2 2 11 19 26 31 23 25 24 25 27 25 31 29 27 25 23 22 21 17 15 14 12 9 5 6 5 6 9 8 9 10 10 9 9 10 10 9 11 9 7
6 8 3 3 2 5 4 3 4 3 8 17 24 24 30 25 25 25 22 26 30 30 28 24 23 22 21 19 15 14 14 12 8 7 7 8 9 10 9 9 9 8 8 7 10 12 11 11 10
7 11 8 4 7 7 5 4 3 1 3 13 18 25 29 27 25 23 24 29 30 26 22 20 20 21 20 22 17 14 12 13 10 8 7 6 11 10 10 10 9 9 8 6 7 10 10 12 12
7 5 1 3 2 7 5 4 2 2 5 9 13 14 21 27 26 30 30 29 22 22 18 24 22 15 18 22 21 16 14 14 12 9 7 5 9 10 8 8 9 9 8 8 8 10 11 11 13
3 9 9 9 8 1 2 2 2 2 9 12 12 11 12 17 24 28 32 31 31 32 24 25 26 16 15 18 20 19 17 15 17 14 10 10 8 9 8 9 8 8 10 10 11 10 11 12 13
Wind_Direction
163 140 109 40 235 15 52 70 91 123 140 153 153 151 134 59 39 95 144 151 153 147 144 140 133 128 123 121 118 116 112 108 102 101 98 99 100 99 95 93 99 99 100 114 102 100 98 94 93
156 125 50 76 76 314 97 307 133 149 142 142 131 129 82 79 67 132 141 148 153 148 146 140 135 131 130 128 120 119 123 114 109 106 100 97 100 103 97 95 107 100 103 107 102 96 93 89 89
145 86 48 56 132 201 120 3 125 131 137 137 106 96 76 73 123 137 147 147 153 148 145 138 136 134 128 128 138 136 128 128 120 117 108 104 103 102 103 107 109 104 103 100 97 92 86 84 82
136 50 65 280 130 339 69 73 134 128 139 104 121 73 75 122 134 149 146 149 154 149 143 140 137 133 127 123 130 130 132 138 127 124 119 109 109 101 105 115 115 105 102 93 93 93 87 80 83
117 53 26 66 121 158 141 56 134 137 138 130 116 88 109 132 149 145 148 152 152 146 143 138 139 137 135 121 125 127 122 134 141 134 132 121 112 105 107 119 114 106 98 100 96 90 82 79 78
102 58 72 124 75 36 78 9 126 157 129 120 107 113 101 133 147 148 152 155 157 150 147 142 140 138 133 126 130 137 126 135 134 131 136 124 115 108 106 124 116 113 101 106 94 87 78 72 76
48 118 171 197 194 161 96 343 130 142 135 108 134 111 131 144 148 148 151 156 156 157 151 142 140 140 131 126 128 129 129 131 138 140 134 130 120 114 111 113 122 119 107 108 95 82 72 70 70
36 112 269 236 166 138 156 357 77 121 103 133 133 145 156 159 150 148 145 149 151 154 153 148 142 142 134 130 128 124 124 131 136 139 133 135 121 114 113 110 125 119 108 102 91 78 71 69 65
117 272 338 3 150 122 145 322 72 113 127 98 166 143 147 152 149 148 150 151 152 149 151 148 143 140 136 133 133 128 123 125 136 142 141 129 121 123 117 119 128 123 112 99 83 74 66 64 60
221 219 278 351 150 138 146 264 125 133 120 100 112 127 144 152 153 154 157 159 158 155 153 151 146 146 143 136 136 135 130 132 143 145 140 128 123 123 122 126 131 124 111 96 80 68 61 57 49
183 17 157 66 152 147 159 156 47 130 151 169 143 144 151 158 160 160 161 165 162 157 157 155 149 150 147 140 141 135 126 139 138 141 137 131 123 122 123 124 123 118 107 93 75 56 52 58 63
163 125 73 138 153 153 160 131 120 19 177 157 146 150 155 161 164 165 166 166 166 162 159 157 152 149 146 141 136 124 120 127 138 136 136 135 128 125 124 121 119 118 105 86 83 70 50 81 86
199 172 92 100 150 133 104 108 55 78 129 144 145 152 158 162 165 166 171 171 170 165 159 156 152 149 148 147 143 129 122 129 132 132 133 133 129 126 126 122 123 117 103 95 84 70 62 77 76
161 158 128 141 170 151 133 140 349 112 140 145 152 158 161 166 169 166 177 177 172 165 158 154 152 153 150 150 138 137 132 133 134 134 137 132 126 122 125 126 133 128 111 99 72 61 71 73 66
137 135 134 145 163 137 130 156 220 146 149 153 160 165 169 171 173 169 173 180 170 163 154 142 147 152 148 147 141 134 128 129 137 137 140 137 131 138 143 139 143 137 110 88 69 68 75 77 80
143 153 158 160 146 150 178 177 205 156 160 166 167 174 178 182 181 173 170 170 168 166 154 154 145 151 152 151 151 148 144 143 143 144 147 145 135 142 144 148 151 150 120 78 76 72 66 69 69
190 164 172 164 171 154 291 117 154 176 180 176 177 180 185 188 188 188 180 176 171 171 166 157 158 158 155 153 156 155 154 151 153 160 156 157 149 151 150 155 160 150 145 101 77 68 64 63 68
167 177 176 156 168 161 119 104 151 168 180 179 183 187 190 195 199 193 191 182 185 180 177 170 165 165 171 167 168 170 173 170 177 173 170 170 165 162 158 166 171 159 150 120 88 84 70 68 46
143 168 161 113 155 145 136 132 165 173 178 181 186 190 196 203 202 199 199 189 194 192 186 183 179 178 181 180 178 181 181 178 175 182 185 179 177 177 167 162 169 157 152 133 96 68 63 50 64
132 154 107 90 134 133 166 105 155 171 174 180 186 193 199 197 200 201 203 202 200 198 193 189 186 191 188 187 188 181 185 191 193 198 196 193 197 197 185 171 175 158 150 142 109 86 79 61 62
179 175 162 143 129 110 147 95 134 182 179 182 191 201 205 199 201 199 205 207 203 202 198 192 185 187 189 182 184 186 191 196 206 205 208 203 203 201 198 189 181 180 160 175 149 102 80 58 50
196 177 153 143 165 153 219 127 268 160 192 199 199 199 208 206 204 202 201 204 206 204 199 195 189 186 192 191 190 200 209 205 207 202 206 208 205 200 196 200 203 199 202 193 201 165 81 61 46
188 173 153 153 103 153 169 127 184 180 201 198 200 203 206 210 205 204 203 205 204 206 201 196 196 195 196 194 196 206 190 190 193 187 197 197 200 195 196 209 216 210 196 203 219 217 190 75 82
125 120 103 95 1 248 200 208 185 190 216 204 197 197 204 206 207 209 210 203 204 206 206 200 198 200 204 203 205 206 214 213 202 196 207 202 202 200 205 208 207 191 198 210 227 218 218 222 133
186 163 135 168 196 223 206 203 246 198 217 203 196 196 198 203 206 207 200 202 207 208 208 206 204 203 204 209 207 211 218 225 220 214 228 222 215 203 197 190 185 195 209 215 227 221 214 218 221
185 194 199 182 199 175 143 219 208 299 233 211 201 206 196 202 205 205 206 205 205 206 210 211 210 211 210 214 213 216 224 226 228 215 232 238 232 217 207 208 204 213 220 231 230 217 212 220 228
188 223 249 109 83 208 174 241 234 9 171 185 187 193 202 206 205 204 196 202 205 208 208 212 219 217 217 220 219 223 224 229 244 243 241 224 231 220 224 215 213 213 223 234 230 224 220 225 230
203 175 193 219 183 213 196 253 187 90 135 189 183 193 201 203 201 195 189 204 207 203 201 218 229 230 229 225 227 229 226 227 240 250 253 222 209 217 213 219 212 210 215 216 222 213 230 231 239
173 194 188 183 303 218 185 212 129 221 173 186 189 180 190 192 187 192 202 196 200 214 219 218 230 233 228 226 230 232 231 228 230 234 225 213 202 219 218 206 212 221 229 228 228 227 234 238 243
215 198 193 214 186 128 314 163 312 150 164 167 158 154 154 167 175 185 194 194 204 210 212 215 221 236 229 231 232 238 236 228 224 226 221 222 199 191 197 207 227 232 240 245 243 238 234 241 248